This is the latest recevied weather packets stored in our database for station/object SR2ATJ-13. If no packets are shown the sender has not sent any weather packets the latest 10 day(s).
| Time | Temp. | Humidity | Pressure | Rain* | Wind** | Luminosity | Snow |
|---|---|---|---|---|---|---|---|
| 1777824303 | 25° C | 23% | 1011.1 hPa | - | - | - | - |
| 1777823103 | 25.56° C | 23% | 1011.2 hPa | - | - | - | - |
| 1777822505 | 26.11° C | 23% | 1011.3 hPa | - | - | - | - |
| 1777821903 | 26.11° C | 23% | 1011.4 hPa | - | - | - | - |
| 1777821303 | 26.11° C | 22% | 1011.4 hPa | - | - | - | - |
| 1777820703 | 26.11° C | 23% | 1011.5 hPa | - | - | - | - |
| 1777820105 | 26.67° C | 23% | 1011.5 hPa | - | - | - | - |
| 1777819503 | 26.67° C | 23% | 1011.7 hPa | - | - | - | - |
| 1777818905 | 27.22° C | 23% | 1011.8 hPa | - | - | - | - |
| 1777818303 | 27.22° C | 23% | 1011.8 hPa | - | - | - | - |
| 1777817703 | 27.22° C | 23% | 1011.9 hPa | - | - | - | - |
| 1777817104 | 27.22° C | 23% | 1012.1 hPa | - | - | - | - |
| 1777816503 | 27.22° C | 23% | 1012.2 hPa | - | - | - | - |
| 1777815903 | 27.22° C | 24% | 1012.4 hPa | - | - | - | - |
| 1777814703 | 27.78° C | 23% | 1012.6 hPa | - | - | - | - |
| 1777814104 | 27.22° C | 24% | 1012.7 hPa | - | - | - | - |
| 1777813503 | 27.78° C | 24% | 1012.8 hPa | - | - | - | - |
| 1777812903 | 27.78° C | 23% | 1012.9 hPa | - | - | - | - |
| 1777812303 | 27.78° C | 24% | 1012.8 hPa | - | - | - | - |
| 1777811704 | 27.78° C | 23% | 1012.9 hPa | - | - | - | - |
| 1777810503 | 27.22° C | 23% | 1013.1 hPa | - | - | - | - |
| 1777809903 | 27.78° C | 24% | 1013.3 hPa | - | - | - | - |
| 1777809303 | 27.78° C | 24% | 1013.3 hPa | - | - | - | - |
| 1777808704 | 27.78° C | 24% | 1013.3 hPa | - | - | - | - |
| 1777808103 | 27.78° C | 23% | 1013.5 hPa | - | - | - | - |
* Rain since midnight (hover to see other rain measurements)
** Current wind speed in m/s (hover to see current wind gust speed)